Katta Gehege Affenhaus Messungen

Zurück zum Überblick

Zeitpunkt Temperatur Luftfeuchte
07.08.2020 19:50:34 32,8 C 38,0%
07.08.2020 19:43:32 33,1 C 38,0%
07.08.2020 19:36:29 33,3 C 38,0%
07.08.2020 19:29:27 33,5 C 37,0%
07.08.2020 19:22:25 33,7 C 37,0%
07.08.2020 19:15:24 33,9 C 37,0%
07.08.2020 19:08:24 34,0 C 37,0%
07.08.2020 19:01:22 34,0 C 37,0%
07.08.2020 18:54:19 34,2 C 37,0%
07.08.2020 18:47:16 34,2 C 37,0%
07.08.2020 18:40:13 34,3 C 37,0%
07.08.2020 18:33:11 34,3 C 37,0%
07.08.2020 18:26:08 34,3 C 37,0%
07.08.2020 18:19:06 34,3 C 37,0%
07.08.2020 18:12:04 34,3 C 38,0%
07.08.2020 18:05:02 34,3 C 38,0%
07.08.2020 17:58:00 34,2 C 38,0%
07.08.2020 17:50:57 34,1 C 37,0%
07.08.2020 17:43:55 34,1 C 37,0%
07.08.2020 17:36:52 34,0 C 38,0%
07.08.2020 17:29:49 34,0 C 38,0%
07.08.2020 17:22:47 33,9 C 38,0%
07.08.2020 17:15:46 33,8 C 38,0%
07.08.2020 17:08:44 33,7 C 38,0%
07.08.2020 17:01:42 33,6 C 38,0%
07.08.2020 16:54:40 33,4 C 38,0%
07.08.2020 16:47:39 33,4 C 39,0%
07.08.2020 16:40:37 33,2 C 39,0%
07.08.2020 16:33:36 33,1 C 39,0%
07.08.2020 16:26:35 32,9 C 39,0%
07.08.2020 16:19:33 32,8 C 39,0%
07.08.2020 16:12:30 32,6 C 40,0%
07.08.2020 16:05:29 32,5 C 39,0%
07.08.2020 15:58:26 32,3 C 39,0%
07.08.2020 15:51:24 32,2 C 40,0%
07.08.2020 15:44:23 32,0 C 40,0%
07.08.2020 15:37:22 31,8 C 41,0%
07.08.2020 15:30:19 31,6 C 40,0%
07.08.2020 15:23:19 31,4 C 41,0%
07.08.2020 15:16:23 31,3 C 41,0%
07.08.2020 15:09:16 31,1 C 42,0%
07.08.2020 15:02:14 30,8 C 42,0%
07.08.2020 14:55:12 30,7 C 42,0%
07.08.2020 14:48:10 30,5 C 43,0%
07.08.2020 14:41:09 30,2 C 43,0%
07.08.2020 14:34:08 30,0 C 44,0%
07.08.2020 14:27:06 29,8 C 45,0%
07.08.2020 14:20:04 29,5 C 45,0%
07.08.2020 14:13:02 29,2 C 45,0%
07.08.2020 14:06:00 28,9 C 46,0%
07.08.2020 13:58:57 28,6 C 47,0%
07.08.2020 13:51:57 28,4 C 47,0%
07.08.2020 13:44:55 28,3 C 48,0%
07.08.2020 13:37:55 28,2 C 48,0%
07.08.2020 13:30:53 28,1 C 48,0%
07.08.2020 13:23:50 27,9 C 48,0%
07.08.2020 13:16:49 27,8 C 48,0%
07.08.2020 13:09:47 27,7 C 48,0%
07.08.2020 13:02:45 27,6 C 49,0%
07.08.2020 12:55:42 27,5 C 49,0%
07.08.2020 12:48:42 27,3 C 49,0%
07.08.2020 12:41:40 27,2 C 49,0%
07.08.2020 12:34:38 27,2 C 50,0%
07.08.2020 12:27:37 27,1 C 50,0%
07.08.2020 12:20:36 27,0 C 50,0%
07.08.2020 12:13:33 26,9 C 51,0%
07.08.2020 12:06:32 26,9 C 51,0%
07.08.2020 11:59:31 26,8 C 51,0%
07.08.2020 11:52:28 26,7 C 52,0%
07.08.2020 11:45:26 26,6 C 52,0%
07.08.2020 11:38:25 26,5 C 52,0%
07.08.2020 11:31:22 26,4 C 52,0%
07.08.2020 11:24:21 26,3 C 52,0%
07.08.2020 11:17:19 26,2 C 53,0%
07.08.2020 11:10:16 26,1 C 53,0%
07.08.2020 11:03:14 26,0 C 53,0%
07.08.2020 10:56:13 25,9 C 53,0%
07.08.2020 10:49:10 25,8 C 53,0%
07.08.2020 10:42:08 25,7 C 53,0%
07.08.2020 10:35:07 25,5 C 53,0%
07.08.2020 10:28:05 25,5 C 54,0%
07.08.2020 10:21:02 25,2 C 54,0%
07.08.2020 10:14:00 25,2 C 54,0%
07.08.2020 10:06:58 25,0 C 54,0%
07.08.2020 09:59:58 24,9 C 54,0%
07.08.2020 09:52:56 24,7 C 54,0%
07.08.2020 09:45:53 24,6 C 53,0%
07.08.2020 09:38:50 24,5 C 54,0%
07.08.2020 09:31:49 24,3 C 54,0%
07.08.2020 09:24:47 24,2 C 54,0%
07.08.2020 09:17:44 24,1 C 54,0%
07.08.2020 09:10:42 24,0 C 54,0%
07.08.2020 09:03:41 23,8 C 54,0%
07.08.2020 08:56:38 23,7 C 54,0%
07.08.2020 08:49:37 23,6 C 54,0%
07.08.2020 08:42:36 23,4 C 55,0%
07.08.2020 08:35:34 23,3 C 54,0%
07.08.2020 08:28:31 23,2 C 54,0%
07.08.2020 08:21:30 23,1 C 54,0%
07.08.2020 08:14:30 23,0 C 54,0%
07.08.2020 08:07:27 23,0 C 54,0%
07.08.2020 08:00:26 22,9 C 54,0%
07.08.2020 07:53:25 22,8 C 54,0%
07.08.2020 07:46:24 22,8 C 54,0%
07.08.2020 07:39:22 22,8 C 54,0%
07.08.2020 07:32:19 22,8 C 54,0%
07.08.2020 07:25:16 22,8 C 54,0%
07.08.2020 07:18:12 22,7 C 54,0%
07.08.2020 07:11:10 22,7 C 54,0%
07.08.2020 07:04:10 22,7 C 54,0%
07.08.2020 06:57:08 22,7 C 54,0%
07.08.2020 06:50:05 22,7 C 54,0%
07.08.2020 06:43:02 22,7 C 54,0%
07.08.2020 06:36:00 22,8 C 54,0%
07.08.2020 06:28:57 22,8 C 54,0%
07.08.2020 06:21:56 22,8 C 54,0%
07.08.2020 06:14:53 22,8 C 54,0%
07.08.2020 06:07:52 22,9 C 54,0%
07.08.2020 06:00:51 22,9 C 54,0%
07.08.2020 05:53:50 22,9 C 53,0%
07.08.2020 05:46:49 23,0 C 53,0%
07.08.2020 05:39:46 23,1 C 53,0%
07.08.2020 05:32:42 23,1 C 53,0%
07.08.2020 05:25:42 23,2 C 53,0%
07.08.2020 05:18:39 23,3 C 53,0%
07.08.2020 05:11:36 23,3 C 53,0%
07.08.2020 05:04:34 23,4 C 53,0%
07.08.2020 04:57:33 23,5 C 53,0%
07.08.2020 04:50:30 23,5 C 52,0%
07.08.2020 04:43:27 23,6 C 53,0%
07.08.2020 04:36:24 23,7 C 52,0%
07.08.2020 04:29:23 23,7 C 52,0%
07.08.2020 04:22:22 23,8 C 52,0%
07.08.2020 04:15:21 23,9 C 52,0%
07.08.2020 04:08:17 24,0 C 52,0%
07.08.2020 04:01:14 24,0 C 52,0%
07.08.2020 03:54:11 24,1 C 52,0%
07.08.2020 03:47:11 24,2 C 52,0%
07.08.2020 03:40:09 24,3 C 52,0%
07.08.2020 03:33:09 24,3 C 52,0%
07.08.2020 03:26:07 24,4 C 52,0%
07.08.2020 03:19:06 24,5 C 52,0%
07.08.2020 03:12:04 24,6 C 51,0%
07.08.2020 03:05:01 24,6 C 51,0%
07.08.2020 02:57:59 24,7 C 51,0%
07.08.2020 02:50:57 24,8 C 51,0%
07.08.2020 02:43:54 24,9 C 51,0%
07.08.2020 02:36:50 25,0 C 51,0%
07.08.2020 02:29:49 25,1 C 51,0%
07.08.2020 02:22:46 25,2 C 50,0%
07.08.2020 02:15:43 25,3 C 50,0%
07.08.2020 02:08:43 25,4 C 50,0%
07.08.2020 02:01:41 25,5 C 50,0%
07.08.2020 01:54:40 25,6 C 50,0%
07.08.2020 01:47:38 25,7 C 50,0%
07.08.2020 01:40:37 25,8 C 50,0%
07.08.2020 01:33:36 25,9 C 50,0%
07.08.2020 01:26:34 26,0 C 49,0%
07.08.2020 01:19:31 26,1 C 49,0%
07.08.2020 01:12:30 26,2 C 49,0%
07.08.2020 01:05:28 26,3 C 49,0%
07.08.2020 00:58:27 26,4 C 49,0%
07.08.2020 00:51:25 26,5 C 48,0%
07.08.2020 00:44:23 26,7 C 48,0%
07.08.2020 00:37:21 26,7 C 48,0%
07.08.2020 00:30:20 26,8 C 48,0%
07.08.2020 00:23:19 26,9 C 48,0%
07.08.2020 00:16:18 27,1 C 48,0%
07.08.2020 00:09:15 27,2 C 48,0%
07.08.2020 00:02:13 27,3 C 47,0%